Weather History for KBYI - April, 2013

Change the Weather History Date:

Saturday, April 6, 2013

  Actual Average Record
Temperature  
Mean Temperature 47 °F 44 °F  
Max Temperature 58 °F 56 °F 77 °F (1988)
Min Temperature 35 °F 32 °F 12 °F (1983)
Degree Days  
Heating Degree Days 18 21  
Month to date heating degree days 85 129  
Since 1 July heating degree days 5575 5948  
Cooling Degree Days 0 0  
Month to date cooling degree days 0 0  
Year to date cooling degree days 0 0  
Moisture  
Dew Point 38 °F    
Average Humidity 74    
Maximum Humidity 100    
Minimum Humidity 47    
Precipitation  
Precipitation 0.16 in 0.03 in 0.48 in (1976)
Month to date precipitation 0.27 0.17  
Year to date precipitation 1.22 2.88  
Sea Level Pressure  
Sea Level Pressure 29.95 in    
Wind  
Wind Speed 8 mph (WSW)    
Max Wind Speed 28 mph    
Max Gust Speed 37 mph    
Visibility 9 miles    
Events Rain    
T = Trace of Precipitation, MM = Missing Value Source: NWS Daily Summary

Daily Weather History Graph

Daily Weather History Graph

Search for Another Location

Airport or City:

Trip Planner

Search our weather history database for the weather conditions in past years. The results will help you decide how hot, cold, wet, or windy it might be!

Date:

Astronomy

Apr. 06, 2013 Rise Set
Actual Time 7:08 AM MDT 8:07 PM MDT
Civil Twilight 6:39 AM MDT 8:35 PM MDT
Nautical Twilight 6:05 AM MDT 9:10 PM MDT
Astronomical Twilight 5:29 AM MDT 9:46 PM MDT
Moon 4:58 AM MDT (4/6) 4:36 PM MDT (4/6)
Length of Visible Light 13h 56m
Length of Day
12h 58m
Waning Crescent, 14% of the Moon is Illuminated
Apr 6
Waning Crescent
Apr 10
New
Apr 18
First Quarter
Apr 25
Full
May 2
Last Quarter

Hourly Weather History & Observations

Time (MDT) Temp. Windchill Dew Point Humidity Pressure Visibility Wind Dir Wind Speed Gust Speed Precip Events Conditions
12:53 AM 39.9 °F - 34.0 °F 79% 29.94 in 10.0 mi Calm Calm - N/A   Clear
1:53 AM 42.1 °F 39.2 °F 35.1 °F 76% 29.92 in 10.0 mi South 4.6 mph - N/A   Clear
2:53 AM 42.1 °F - 35.1 °F 76% 29.91 in 10.0 mi Calm Calm - N/A   Clear
3:53 AM 42.1 °F - 36.0 °F 79% 29.89 in 10.0 mi Calm Calm - N/A   Overcast
4:53 AM 42.1 °F 40.2 °F 37.0 °F 82% 29.89 in 10.0 mi South 3.5 mph - N/A   Overcast
5:53 AM 46.0 °F 41.9 °F 33.1 °F 61% 29.90 in 10.0 mi West 8.1 mph - N/A   Overcast
6:53 AM 45.0 °F 37.9 °F 34.0 °F 65% 29.93 in 10.0 mi West 16.1 mph 23.0 mph N/A   Overcast
7:53 AM 43.0 °F 38.2 °F 37.0 °F 80% 29.97 in 10.0 mi West 8.1 mph 18.4 mph 0.00 in Rain Light Rain
8:53 AM 48.0 °F - 39.0 °F 71% 29.97 in 10.0 mi WSW 11.5 mph - 0.00 in   Overcast
9:53 AM 48.0 °F - 37.9 °F 68% 29.98 in 10.0 mi West 9.2 mph 21.9 mph N/A   Overcast
10:53 AM 48.9 °F - 39.0 °F 69% 29.99 in 10.0 mi West 10.4 mph - N/A   Overcast
11:53 AM 52.0 °F - 37.0 °F 57% 29.98 in 10.0 mi WSW 10.4 mph - N/A   Overcast
12:53 PM 53.1 °F - 36.0 °F 52% 29.96 in 10.0 mi West 11.5 mph 19.6 mph N/A   Scattered Clouds
1:53 PM 55.9 °F - 35.1 °F 45% 29.94 in 10.0 mi West 13.8 mph 21.9 mph N/A   Mostly Cloudy
2:45 PM 46.4 °F 40.1 °F 42.8 °F 87% 30.00 in 4.0 mi West 15.0 mph 28.8 mph 0.03 in Rain Rain
2:53 PM 46.9 °F - 43.0 °F 86% 29.98 in 5.0 mi West 11.5 mph 23.0 mph 0.04 in Rain Light Rain
3:00 PM 48.2 °F - 42.8 °F 82% 29.99 in 10.0 mi West 9.2 mph 17.3 mph 0.00 in   Overcast
3:53 PM 50.0 °F - 39.0 °F 66% 29.95 in 10.0 mi West 15.0 mph 25.3 mph 0.00 in   Overcast
4:53 PM 53.1 °F - 35.1 °F 50% 29.94 in 10.0 mi West 17.3 mph 24.2 mph N/A   Mostly Cloudy
5:53 PM 54.0 °F - 37.0 °F 53% 29.91 in 10.0 mi Variable 6.9 mph 16.1 mph 0.00 in   Clear
6:50 PM 46.4 °F 38.7 °F 39.2 °F 76% 29.98 in 2.5 mi WSW 20.7 mph 36.8 mph 0.05 in Rain Heavy Rain
6:53 PM 45.0 °F 37.6 °F 39.9 °F 82% 29.97 in 2.0 mi West 17.3 mph 36.8 mph 0.07 in Rain Heavy Rain
6:59 PM 44.6 °F 38.1 °F 41.0 °F 87% 29.99 in 3.0 mi West 13.8 mph 24.2 mph 0.00 in Rain Light Rain
7:04 PM 44.6 °F 37.4 °F 41.0 °F 87% 29.99 in 7.0 mi West 16.1 mph 21.9 mph 0.01 in Rain Light Rain
7:18 PM 44.6 °F 38.8 °F 41.0 °F 87% 29.99 in 5.0 mi West 11.5 mph 20.7 mph 0.03 in Rain Rain
7:37 PM 44.6 °F 40.2 °F 42.8 °F 93% 29.98 in 10.0 mi WSW 8.1 mph - 0.05 in Rain Light Rain
7:53 PM 44.1 °F 39.0 °F 41.0 °F 89% 29.96 in 10.0 mi SW 9.2 mph - 0.05 in   Overcast
8:53 PM 42.1 °F 37.1 °F 39.9 °F 92% 29.93 in 10.0 mi WSW 8.1 mph - N/A   Clear
9:53 PM 39.9 °F - 39.0 °F 97% 29.94 in 10.0 mi Calm Calm - N/A   Clear
10:53 PM 37.0 °F 34.5 °F 36.0 °F 96% 29.93 in 10.0 mi SSW 3.5 mph - N/A   Clear
11:53 PM 37.9 °F - 36.0 °F 93% 29.90 in 10.0 mi Calm Calm - N/A   Partly Cloudy